This is the latest recevied weather packets stored in our database for station/object K7KAZ. If no packets are shown the sender has not sent any weather packets the latest 10 day(s).
| Time | Temp. | Humidity | Pressure | Rain* | Wind** | Luminosity | Snow |
|---|---|---|---|---|---|---|---|
| 1777680530 | 30° C | 22% | 1011.2 hPa | 0 mm | - | 289 W/m² | - |
| 1777680228 | 30° C | 22% | 1011.2 hPa | 0 mm | - | 289 W/m² | - |
| 1777679924 | 30° C | 21% | 1011.1 hPa | 0 mm | - | 287 W/m² | - |
| 1777679619 | 30° C | 21% | 1011.2 hPa | 0 mm | - | 308 W/m² | - |
| 1777679315 | 30.56° C | 21% | 1011.2 hPa | 0 mm | - | 329 W/m² | - |
| 1777679012 | 30° C | 21% | 1011.5 hPa | 0 mm | - | 316 W/m² | - |
| 1777678711 | 30° C | 20% | 1011.4 hPa | 0 mm | - | 385 W/m² | - |
| 1777678408 | 30.56° C | 21% | 1011.3 hPa | 0 mm | - | 357 W/m² | - |
| 1777678103 | 30.56° C | 20% | 1011.4 hPa | 0 mm | - | 388 W/m² | - |
| 1777677801 | 30° C | 20% | 1011.4 hPa | 0 mm | - | 368 W/m² | - |
| 1777677498 | 29.44° C | 21% | 1011.3 hPa | 0 mm | - | 366 W/m² | - |
| 1777677196 | 30.56° C | 21% | 1011.5 hPa | 0 mm | - | 424 W/m² | - |
| 1777676894 | 30° C | 21% | 1011.4 hPa | 0 mm | - | 456 W/m² | - |
| 1777676593 | 30° C | 22% | 1011.2 hPa | 0 mm | - | 472 W/m² | - |
| 1777676290 | 29.44° C | 23% | 1011.5 hPa | 0 mm | - | 475 W/m² | - |
| 1777675988 | 30.56° C | 22% | 1011.4 hPa | 0 mm | - | 519 W/m² | - |
| 1777675684 | 30° C | 23% | 1011.5 hPa | 0 mm | - | 524 W/m² | - |
| 1777675381 | 30° C | 22% | 1011.6 hPa | 0 mm | - | 497 W/m² | - |
| 1777675077 | 30° C | 22% | 1011.8 hPa | 0 mm | - | 458 W/m² | - |
| 1777674773 | 29.44° C | 23% | 1011.7 hPa | 0 mm | - | 480 W/m² | - |
| 1777674470 | 30° C | 23% | 1011.7 hPa | 0 mm | - | 544 W/m² | - |
| 1777674168 | 30° C | 23% | 1011.8 hPa | 0 mm | - | 504 W/m² | - |
| 1777673864 | 28.89° C | 25% | 1012 hPa | 0 mm | - | 595 W/m² | - |
| 1777673561 | 28.89° C | 24% | 1011.9 hPa | 0 mm | - | 606 W/m² | - |
| 1777673258 | 28.89° C | 24% | 1012.1 hPa | 0 mm | - | 514 W/m² | - |
* Rain latest hour (hover to see other rain measurements)
** Current wind speed in m/s (hover to see current wind gust speed)